Year,Month,Day,Hour,Minute,Value (Times are PST for temperature in C)
2021,07,02,11,09,19.10
2021,07,02,11,10,19.00
2021,07,02,11,11,19.10
2021,07,02,11,12,19.10
2021,07,02,11,13,19.10
2021,07,02,11,14,19.20
2021,07,02,11,15,19.20
2021,07,02,11,16,19.30
2021,07,02,11,17,19.30
2021,07,02,11,18,19.30
2021,07,02,11,19,19.20
2021,07,02,11,20,19.20
2021,07,02,11,21,19.20
2021,07,02,11,22,19.10
2021,07,02,11,23,19.10
2021,07,02,11,24,19.10
2021,07,02,11,25,19.20
2021,07,02,11,26,19.20
2021,07,02,11,27,19.40
2021,07,02,11,28,19.50
2021,07,02,11,29,19.60
2021,07,02,11,30,19.60
2021,07,02,11,31,19.60
2021,07,02,11,32,19.60
2021,07,02,11,33,19.60
2021,07,02,11,34,19.60
2021,07,02,11,35,19.70
2021,07,02,11,36,19.80
2021,07,02,11,37,19.80
2021,07,02,11,38,19.80
2021,07,02,11,39,19.80
2021,07,02,11,40,19.80
2021,07,02,11,41,19.80
2021,07,02,11,42,19.90
2021,07,02,11,43,19.90
2021,07,02,11,44,19.90
2021,07,02,11,45,19.90
2021,07,02,11,46,19.90
2021,07,02,11,47,19.90
2021,07,02,11,48,19.90
2021,07,02,11,49,19.90
2021,07,02,11,50,20.10
2021,07,02,11,51,20.20
2021,07,02,11,52,20.20
2021,07,02,11,53,20.30
2021,07,02,11,54,20.30
2021,07,02,11,55,20.30
2021,07,02,11,56,20.30
2021,07,02,11,57,20.30
2021,07,02,11,58,20.30
2021,07,02,11,59,20.20
2021,07,02,12,00,20.20
2021,07,02,12,01,20.20
2021,07,02,12,02,20.20
2021,07,02,12,03,20.10
2021,07,02,12,04,20.00
2021,07,02,12,05,19.90
2021,07,02,12,06,19.90
2021,07,02,12,07,19.80
2021,07,02,12,08,19.70
2021,07,02,12,09,19.60
2021,07,02,12,10,19.60
2021,07,02,12,11,19.60
2021,07,02,12,12,19.50
2021,07,02,12,13,19.50
2021,07,02,12,14,19.50
2021,07,02,12,15,19.40
2021,07,02,12,16,19.50
2021,07,02,12,17,19.50
2021,07,02,12,18,19.60
2021,07,02,12,19,19.70
2021,07,02,12,20,19.70
2021,07,02,12,21,19.80
2021,07,02,12,22,19.90
2021,07,02,12,23,19.90
2021,07,02,12,24,19.90
2021,07,02,12,25,19.90
2021,07,02,12,26,19.90
2021,07,02,12,27,19.90
2021,07,02,12,28,19.90
2021,07,02,12,29,19.90
2021,07,02,12,30,19.90
2021,07,02,12,31,19.80
2021,07,02,12,32,19.70
2021,07,02,12,33,19.60
2021,07,02,12,34,19.60
2021,07,02,12,35,19.70
2021,07,02,12,36,19.70
2021,07,02,12,37,19.70
2021,07,02,12,38,19.80
2021,07,02,12,39,19.90
2021,07,02,12,40,19.90
2021,07,02,12,41,20.00
2021,07,02,12,42,20.10
2021,07,02,12,43,20.20
2021,07,02,12,44,20.20
2021,07,02,12,45,20.20
2021,07,02,12,46,20.10
2021,07,02,12,47,20.10
2021,07,02,12,48,20.00
2021,07,02,12,49,19.90
2021,07,02,12,50,19.90
2021,07,02,12,51,19.90
2021,07,02,12,52,19.90
2021,07,02,12,53,19.80
2021,07,02,12,54,19.70
2021,07,02,12,55,19.80
2021,07,02,12,56,19.80
2021,07,02,12,57,19.70
2021,07,02,12,58,19.60
2021,07,02,12,59,19.50
2021,07,02,13,00,19.50
2021,07,02,13,01,19.50
2021,07,02,13,02,19.60
2021,07,02,13,03,19.60
2021,07,02,13,04,19.60
2021,07,02,13,05,19.50
2021,07,02,13,06,19.40
2021,07,02,13,07,19.30
2021,07,02,13,08,19.30
2021,07,02,13,09,19.30
2021,07,02,13,10,19.30
2021,07,02,13,11,19.30
2021,07,02,13,12,19.30
2021,07,02,13,13,19.20
2021,07,02,13,14,19.10
2021,07,02,13,15,19.10
2021,07,02,13,16,19.20
2021,07,02,13,17,19.40
2021,07,02,13,18,19.40
2021,07,02,13,19,19.40
2021,07,02,13,20,19.40
2021,07,02,13,21,19.30
2021,07,02,13,22,19.30
2021,07,02,13,23,19.30
2021,07,02,13,24,19.30
2021,07,02,13,25,19.30
2021,07,02,13,26,19.30
2021,07,02,13,27,19.30
2021,07,02,13,28,19.30
2021,07,02,13,29,19.20
2021,07,02,13,30,19.30
2021,07,02,13,31,19.30
2021,07,02,13,32,19.20
2021,07,02,13,33,19.10
2021,07,02,13,34,19.10
2021,07,02,13,35,19.10
2021,07,02,13,36,19.10
2021,07,02,13,37,19.20
2021,07,02,13,38,19.40
2021,07,02,13,39,19.50
2021,07,02,13,40,19.60
2021,07,02,13,41,19.60
2021,07,02,13,42,19.70
2021,07,02,13,43,19.80
2021,07,02,13,44,19.90
2021,07,02,13,45,20.00
2021,07,02,13,46,20.10
2021,07,02,13,47,20.00
2021,07,02,13,48,19.90
2021,07,02,13,49,19.90
2021,07,02,13,50,19.80
2021,07,02,13,51,19.90
2021,07,02,13,52,19.90
2021,07,02,13,53,19.90
2021,07,02,13,54,19.90
2021,07,02,13,55,19.90
2021,07,02,13,56,19.80
2021,07,02,13,57,19.80
2021,07,02,13,58,19.80
2021,07,02,13,59,19.70
2021,07,02,14,00,19.70
2021,07,02,14,01,19.60
2021,07,02,14,02,19.60
2021,07,02,14,03,19.50
2021,07,02,14,04,19.40
2021,07,02,14,05,19.40
2021,07,02,14,06,19.40
2021,07,02,14,07,19.30
2021,07,02,14,08,19.40
2021,07,02,14,09,19.40
2021,07,02,14,10,19.50
2021,07,02,14,11,19.60
2021,07,02,14,12,19.70
2021,07,02,14,13,19.70
2021,07,02,14,14,19.80
2021,07,02,14,15,19.90
2021,07,02,14,16,20.10
2021,07,02,14,17,20.20
2021,07,02,14,18,20.20
2021,07,02,14,19,20.20
2021,07,02,14,20,20.20
2021,07,02,14,21,20.20
2021,07,02,14,22,20.20
2021,07,02,14,23,20.20
2021,07,02,14,24,20.10
2021,07,02,14,25,20.00
2021,07,02,14,26,19.90
2021,07,02,14,27,19.90
2021,07,02,14,28,19.90
2021,07,02,14,29,19.80
2021,07,02,14,30,19.80
2021,07,02,14,31,19.70
2021,07,02,14,32,19.60
2021,07,02,14,33,19.60
2021,07,02,14,34,19.70
2021,07,02,14,35,19.80
2021,07,02,14,36,19.80
2021,07,02,14,37,19.60
2021,07,02,14,38,19.60
2021,07,02,14,39,19.70
2021,07,02,14,40,19.70
2021,07,02,14,41,19.90
2021,07,02,14,42,19.90
2021,07,02,14,43,19.90
2021,07,02,14,44,20.00
2021,07,02,14,45,20.10
2021,07,02,14,46,20.10
2021,07,02,14,47,20.10
2021,07,02,14,48,20.20
2021,07,02,14,49,20.20
2021,07,02,14,50,20.30
2021,07,02,14,51,20.50
2021,07,02,14,52,20.60
2021,07,02,14,53,20.60
2021,07,02,14,54,20.60
2021,07,02,14,55,20.60
2021,07,02,14,56,20.50
2021,07,02,14,57,20.40
2021,07,02,14,58,20.40
2021,07,02,14,59,20.20
2021,07,02,15,00,20.20
2021,07,02,15,01,20.20
2021,07,02,15,02,20.30
2021,07,02,15,03,20.50
2021,07,02,15,04,20.50
2021,07,02,15,05,20.40
2021,07,02,15,06,20.40
2021,07,02,15,07,20.20
2021,07,02,15,08,20.20
2021,07,02,15,09,20.20
2021,07,02,15,10,20.20
2021,07,02,15,11,20.20
2021,07,02,15,12,20.20
2021,07,02,15,13,20.10
2021,07,02,15,14,20.10
2021,07,02,15,15,20.10
2021,07,02,15,16,20.00
2021,07,02,15,17,19.90
2021,07,02,15,18,19.90
2021,07,02,15,19,19.90
2021,07,02,15,20,19.90
2021,07,02,15,21,19.90
2021,07,02,15,22,20.00
2021,07,02,15,23,20.10
2021,07,02,15,24,20.20
2021,07,02,15,25,20.20
2021,07,02,15,26,20.30
2021,07,02,15,27,20.30
2021,07,02,15,28,20.20
2021,07,02,15,29,20.20
2021,07,02,15,30,20.20
2021,07,02,15,31,20.20
2021,07,02,15,32,20.30
2021,07,02,15,33,20.30
2021,07,02,15,34,20.30
2021,07,02,15,35,20.40
2021,07,02,15,36,20.50
2021,07,02,15,37,20.60
2021,07,02,15,38,20.70
2021,07,02,15,39,20.80
2021,07,02,15,40,20.80
2021,07,02,15,41,20.80
2021,07,02,15,42,20.80
2021,07,02,15,43,20.80
2021,07,02,15,44,20.70
2021,07,02,15,45,20.60
2021,07,02,15,46,20.60
2021,07,02,15,47,20.50
2021,07,02,15,48,20.40
2021,07,02,15,49,20.30
2021,07,02,15,50,20.20
2021,07,02,15,51,20.10
2021,07,02,15,52,20.10
2021,07,02,15,53,19.90
2021,07,02,15,54,19.90
2021,07,02,15,55,19.90
2021,07,02,15,56,19.90
2021,07,02,15,57,19.90
2021,07,02,15,58,20.10
2021,07,02,15,59,20.00
2021,07,02,16,00,19.90
2021,07,02,16,01,19.90
2021,07,02,16,02,19.90
2021,07,02,16,03,19.90
2021,07,02,16,04,19.90
2021,07,02,16,05,19.90
2021,07,02,16,06,20.00
2021,07,02,16,07,20.20
2021,07,02,16,08,20.20
2021,07,02,16,09,20.20
2021,07,02,16,10,20.10
2021,07,02,16,11,20.10
2021,07,02,16,12,20.00
2021,07,02,16,13,19.90
2021,07,02,16,14,20.00
2021,07,02,16,15,20.10
2021,07,02,16,16,20.10
2021,07,02,16,17,20.20
2021,07,02,16,18,20.30
2021,07,02,16,19,20.40
2021,07,02,16,20,20.50
2021,07,02,16,21,20.70
2021,07,02,16,22,20.80
2021,07,02,16,23,20.80
2021,07,02,16,24,20.90
2021,07,02,16,25,21.00
2021,07,02,16,26,21.10
2021,07,02,16,27,21.10
2021,07,02,16,28,21.10
2021,07,02,16,29,21.20
2021,07,02,16,30,21.30
2021,07,02,16,31,21.40
2021,07,02,16,32,21.60
2021,07,02,16,33,21.60
2021,07,02,16,34,21.60
2021,07,02,16,35,21.60
2021,07,02,16,36,21.60
2021,07,02,16,37,21.60
2021,07,02,16,38,21.60
2021,07,02,16,39,21.60
2021,07,02,16,40,21.60
2021,07,02,16,41,21.60
2021,07,02,16,42,21.60
2021,07,02,16,43,21.60
2021,07,02,16,44,21.70
2021,07,02,16,45,21.70
2021,07,02,16,46,21.80
2021,07,02,16,47,21.80
2021,07,02,16,48,21.80
2021,07,02,16,49,21.80
2021,07,02,16,50,21.80
2021,07,02,16,51,21.80
2021,07,02,16,52,21.80
2021,07,02,16,53,21.90
2021,07,02,16,54,22.00
2021,07,02,16,55,22.10
2021,07,02,16,56,22.10
2021,07,02,16,57,22.20
2021,07,02,16,58,22.30
2021,07,02,16,59,22.40
2021,07,02,17,00,22.50
2021,07,02,17,01,22.50
2021,07,02,17,02,22.50
2021,07,02,17,03,22.30
2021,07,02,17,04,22.20
2021,07,02,17,05,22.20
2021,07,02,17,06,22.00
2021,07,02,17,07,22.00
2021,07,02,17,08,21.90
2021,07,02,17,09,21.80
2021,07,02,17,10,21.80
2021,07,02,17,11,21.80
2021,07,02,17,12,21.80
2021,07,02,17,13,21.90
2021,07,02,17,14,22.00
2021,07,02,17,15,22.00
2021,07,02,17,16,22.10
2021,07,02,17,17,22.20
2021,07,02,17,18,22.30
2021,07,02,17,19,22.30
2021,07,02,17,20,22.40
2021,07,02,17,21,22.50
2021,07,02,17,22,22.50
2021,07,02,17,23,22.50
2021,07,02,17,24,22.60
2021,07,02,17,25,22.60
2021,07,02,17,26,22.60
2021,07,02,17,27,22.60
2021,07,02,17,28,22.40
2021,07,02,17,29,22.30
2021,07,02,17,30,22.20
2021,07,02,17,31,22.10
2021,07,02,17,32,22.10
2021,07,02,17,33,22.00
2021,07,02,17,34,21.90
2021,07,02,17,35,21.80
2021,07,02,17,36,21.80
2021,07,02,17,37,21.70
2021,07,02,17,38,21.60
2021,07,02,17,39,21.60
2021,07,02,17,40,21.50
2021,07,02,17,41,21.40
2021,07,02,17,42,21.50
2021,07,02,17,43,21.50
2021,07,02,17,44,21.50
2021,07,02,17,45,21.60
2021,07,02,17,46,21.60
2021,07,02,17,47,21.60
2021,07,02,17,48,21.60
2021,07,02,17,49,21.70
2021,07,02,17,50,21.80
2021,07,02,17,51,21.80
2021,07,02,17,52,21.80
2021,07,02,17,53,21.80
2021,07,02,17,54,21.80
2021,07,02,17,55,21.80
2021,07,02,17,56,21.80
2021,07,02,17,57,21.70
2021,07,02,17,58,21.70
2021,07,02,17,59,21.70
2021,07,02,18,00,21.80
2021,07,02,18,01,21.80
2021,07,02,18,02,21.70
2021,07,02,18,03,21.70
2021,07,02,18,04,21.60
2021,07,02,18,05,21.60
2021,07,02,18,06,21.60
2021,07,02,18,07,21.60
2021,07,02,18,08,21.50
2021,07,02,18,09,21.40
2021,07,02,18,10,21.30
2021,07,02,18,11,21.20
2021,07,02,18,12,21.20
2021,07,02,18,13,21.20
2021,07,02,18,14,21.20
2021,07,02,18,15,21.20
2021,07,02,18,16,21.10
2021,07,02,18,17,21.20
2021,07,02,18,18,21.20
2021,07,02,18,19,21.30
2021,07,02,18,20,21.30
2021,07,02,18,21,21.30
2021,07,02,18,22,21.30
2021,07,02,18,23,21.30
2021,07,02,18,24,21.30
2021,07,02,18,25,21.30
2021,07,02,18,26,21.30
2021,07,02,18,27,21.40
2021,07,02,18,28,21.40
2021,07,02,18,29,21.30
2021,07,02,18,30,21.30
2021,07,02,18,31,21.30
2021,07,02,18,32,21.30
2021,07,02,18,33,21.30
2021,07,02,18,34,21.30
2021,07,02,18,35,21.30
2021,07,02,18,36,21.30
2021,07,02,18,37,21.30
2021,07,02,18,38,21.30
2021,07,02,18,39,21.30
2021,07,02,18,40,21.30
2021,07,02,18,41,21.30
2021,07,02,18,42,21.30
2021,07,02,18,43,21.30
2021,07,02,18,44,21.30
2021,07,02,18,45,21.30
2021,07,02,18,46,21.30
2021,07,02,18,47,21.30
2021,07,02,18,48,21.30
2021,07,02,18,49,21.40
2021,07,02,18,50,21.40
2021,07,02,18,51,21.40
2021,07,02,18,52,21.40
2021,07,02,18,53,21.60
2021,07,02,18,54,21.60
2021,07,02,18,55,21.60
2021,07,02,18,56,21.60
2021,07,02,18,57,21.60
2021,07,02,18,58,21.50
2021,07,02,18,59,21.40
2021,07,02,19,00,21.40
2021,07,02,19,01,21.40
2021,07,02,19,02,21.30
2021,07,02,19,03,21.30
2021,07,02,19,04,21.40
2021,07,02,19,05,21.40
2021,07,02,19,06,21.50
2021,07,02,19,07,21.60
2021,07,02,19,08,21.60
2021,07,02,19,09,21.60
2021,07,02,19,10,21.60
2021,07,02,19,11,21.60
2021,07,02,19,12,21.60
2021,07,02,19,13,21.60
2021,07,02,19,14,21.60
2021,07,02,19,15,21.60
2021,07,02,19,16,21.60
2021,07,02,19,17,21.60
2021,07,02,19,18,21.60
2021,07,02,19,19,21.60
2021,07,02,19,20,21.60
2021,07,02,19,21,21.60
2021,07,02,19,22,21.70
2021,07,02,19,23,21.60
2021,07,02,19,24,21.60
2021,07,02,19,25,21.60
2021,07,02,19,26,21.60
2021,07,02,19,27,21.60
2021,07,02,19,28,21.60
2021,07,02,19,29,21.60
2021,07,02,19,30,21.60
2021,07,02,19,31,21.60
2021,07,02,19,32,21.60
2021,07,02,19,33,21.60
2021,07,02,19,34,21.60
